Regional Weather Roundup
Issued by NWS Newport/Morehead, NC

Current Version | Previous Version | Text Only | Print | Product List | Glossary On
Versions: 1 2 3 4 5 6 7 8 9 10 11 12 13 14 15 16 17 18 19 20 21 22 23 24 25 26 27 28 29 30 31 32 33 34 35 36 37 38 39 40 41 42 43 44 45 46 47 48 49 50
000 ASUS42 KMHX 280810 RWRMHX WEATHER ROUNDUP FOR EASTERN NORTH CAROLINA NATIONAL WEATHER SERVICE NEWPORT/MOREHEAD CITY NC 300 AM EST WED JAN 28 2015 NOTE: "FAIR" INDICATES FEW OR NO CLOUDS BELOW 12,000 FEET WITH NO SIGNIFICANT WEATHER AND/OR OBSTRUCTIONS TO VISIBILITY NCZ015>017-031-032-045>047-102-103-280900- NORTH COAST CITY SKY/WX TMP DP RH WIND PRES REMARKS EDENTON CLOUDY 33 25 73 N14 30.00R ELIZABETH CITY PTCLDY 31 20 63 NW14G20 30.00R KITTY HAWK CLOUDY 33 24 69 NW8 29.96R MANTEO CLOUDY 34 21 60 N13 29.98R $$ NCZ045>047-081-094-103-104-280900- CENTRAL COAST CITY SKY/WX TMP DP RH WIND PRES REMARKS FRISCO CLOUDY 35 27 72 VRB6 29.96R SWANQUARTER NOT AVBL $$ NCZ095-097-098-100-101-280900- SOUTHERN COAST CITY SKY/WX TMP DP RH WIND PRES REMARKS BEAUFORT CLEAR 34 30 85 N13 30.00R CEDAR ISLAND NOT AVBL JACKSONVILLE PTCLDY 31 24 75 N12 30.02R PINEY ISLAND N/A N/A N/A N/A MISG 29.99R WILMINGTON CLEAR 30 20 66 NW7 30.03R $$ NCZ011>013-027>030-043-044-078>080-089-090>093-098-280900- COASTAL PLAIN CITY SKY/WX TMP DP RH WIND PRES REMARKS AHOSKIE CLEAR 30 22 70 NW3 30.03R CLINTON PTCLDY 32 18 56 N5 30.06R ELIZABETHTOWN CLEAR 31 16 53 N3 30.05R GOLDSBORO CLEAR 30 22 74 NW8 30.03 GREENVILLE PTCLDY 32 23 69 NW5 30.05R HAVELOCK CLEAR 32 26 78 NW7 30.02R KENANSVILLE PTCLDY 30 17 58 NW7 30.04R KINSTON CLEAR 29 24 82 NW8 30.04R NEW BERN CLEAR 32 25 75 NW7 30.02R RICHLANDS PTCLDY 28 21 74 CALM 30.03R ROCKY MOUNT CLOUDY 29 17 61 NW7 30.05R WASHINGTON CLOUDY 32 24 71 NW8 30.02R WHITEVILLE CLEAR 32 14 47 CALM 30.05R $$ AMZ130-135-150-152-154-156-158-170-250-252-270-ANZ085-086-088-633-658-670-280900- MARINE OBSERVATIONS STATION/POSITION TIME TEMP WIND PRES WAVE SWELL AIR SEA DIR/SP/G HT/PER HT/PER (UTC) (F) (DEG/KT/KT) (MB) (FT/S) (FT/S) CHESAPEAKE LIGHT 0700 33 340/ 26/ 28 1014.2 64 E VA BEACH 0800 37 52 340/ 21/ 27 1012.6 11/12 8/12 DUCK 0800 34 42 340/ 18/ 21 1013.8 2 E DUCK 0800 43 N/A 7/13 5/13 10 NE DUCK 0800 45 N/A 10/13 7/13 OREGON INLET 0800 34 43 320/ 12/ 16 1014.5 13E OREGON INLT 0800 45 N/A 10/13 7/13 HATTERAS CG 0800 37 47 340/ 16/ 21 1014.7 DIAMOND BUOY 0800 40 58 340/ 19/ 21 1013.5 8/14 7/14 17 S OCRACOKE NOT AVBL CAPE LOOKOUT 0700 37 330/ 12/ 14 1014.7 BEAUFORT LAB 0800 35 48 330/ 7/ 10 1014.7 27 SE WRIGHTSVLE NOT AVBL 5 SE WRIGHTSVLE 0700 40 53 350/ 19/ 23 1015.2 225 S CAPE HAT 0737 53 71 310/ 21/ 29 1012.2 13/13 8/13 41 SE CHARLESTON 0800 49 67 350/ 19/ 25 1015.8 4/ 4 2/10 $$

USA.gov is the U.S. government's official web portal to all federal, state and local government web resources and services.